CPA238 EGLL-VHHH

Flight info

Callsign CPA238
Flight time N/A
Altitude 33000
Route DET L6 DVR UL9 KONAN DCT KOK DCT DENOX DCT MATUG DCT AMASI DCT BOMBI DCT TENLO DCT DEXIT DCT BEGLA DCT BALUX/N0487F350 DCT BKS DCT EVRIK DCT EMPOS DCT IRLOX DCT OPT DCT LUGEB DCT UDROS DCT BAMUP DCT ROLIN DCT FOQUS DCT LAGAS DCT DISKA M737 VERCA M747 SUBUT T916 BALUN/K0909F370 T916 KUNAS N193 SR L163 TISIB L141 KAMUD/K0896S1130 W186 SADAN Y1 SUNPU/K0896S1190 Y1 OMBON W245 OVRAL B330 KWE W181 DUDIT A599 POU R473 SIERA
Aircraft A35K/H-SDE2E3GHIJ3J4J5LM1ORWXY/LB1D1

Departure

Time 2026-05-06 05:40
Airport London Heathrow Airport (EGLL)

Arrival

Time N/A
Airport Hong Kong International Airport (VHHH)
Time Latitude Longitude Altitude Speed Heading
2026-05-06 05:23 51.47393 -0.46597 92 ft 0 kts 119°
2026-05-06 05:24 51.47401 -0.46620 94 ft 4 kts 120°
2026-05-06 05:25 51.47414 -0.46658 93 ft 4 kts 120°
2026-05-06 05:25 51.47428 -0.46694 95 ft 4 kts 124°
2026-05-06 05:25 51.47444 -0.46727 93 ft 4 kts 137°
2026-05-06 05:25 51.47464 -0.46753 93 ft 4 kts 153°
2026-05-06 05:26 51.47488 -0.46769 94 ft 4 kts 165°
2026-05-06 05:26 51.47510 -0.46777 94 ft 1 kts 167°
2026-05-06 05:26 51.47513 -0.46778 94 ft 0 kts 167°
2026-05-06 05:30 51.47495 -0.46772 95 ft 7 kts 167°
2026-05-06 05:30 51.47444 -0.46753 95 ft 8 kts 167°
2026-05-06 05:30 51.47385 -0.46734 94 ft 9 kts 172°
2026-05-06 05:31 51.47316 -0.46728 92 ft 10 kts 179°
2026-05-06 05:31 51.47240 -0.46727 92 ft 11 kts 180°
2026-05-06 05:31 51.47171 -0.46726 92 ft 8 kts 180°
2026-05-06 05:31 51.47109 -0.46726 92 ft 9 kts 179°
2026-05-06 05:32 51.47042 -0.46703 95 ft 10 kts 160°
2026-05-06 05:32 51.46974 -0.46645 97 ft 11 kts 147°
2026-05-06 05:32 51.46907 -0.46568 96 ft 12 kts 144°
2026-05-06 05:32 51.46840 -0.46494 95 ft 10 kts 141°
2026-05-06 05:33 51.46791 -0.46440 96 ft 9 kts 147°
2026-05-06 05:33 51.46754 -0.46366 95 ft 9 kts 109°
2026-05-06 05:33 51.46747 -0.46261 96 ft 10 kts 91°
2026-05-06 05:33 51.46747 -0.46145 96 ft 11 kts 90°
2026-05-06 05:34 51.46747 -0.46019 96 ft 12 kts 90°
2026-05-06 05:34 51.46748 -0.45885 96 ft 12 kts 90°
2026-05-06 05:34 51.46748 -0.45739 96 ft 14 kts 90°
2026-05-06 05:34 51.46748 -0.45582 96 ft 14 kts 90°
2026-05-06 05:35 51.46749 -0.45418 95 ft 15 kts 89°
2026-05-06 05:35 51.46749 -0.45249 93 ft 15 kts 90°
2026-05-06 05:35 51.46750 -0.45074 93 ft 16 kts 90°
2026-05-06 05:35 51.46750 -0.44895 93 ft 16 kts 90°
2026-05-06 05:36 51.46751 -0.44711 93 ft 17 kts 90°
2026-05-06 05:36 51.46751 -0.44522 93 ft 17 kts 90°
2026-05-06 05:36 51.46752 -0.44329 93 ft 17 kts 89°
2026-05-06 05:36 51.46754 -0.44135 94 ft 17 kts 84°
2026-05-06 05:37 51.46770 -0.43946 94 ft 17 kts 87°
2026-05-06 05:37 51.46770 -0.43905 93 ft 0 kts 90°
2026-05-06 05:37 51.46769 -0.43888 95 ft 5 kts 98°
2026-05-06 05:37 51.46735 -0.43837 95 ft 9 kts 168°
2026-05-06 05:38 51.46648 -0.43833 92 ft 15 kts 178°
2026-05-06 05:38 51.46548 -0.43829 91 ft 6 kts 179°
2026-05-06 05:38 51.46518 -0.43831 91 ft 4 kts 188°
2026-05-06 05:38 51.46504 -0.43852 95 ft 3 kts 237°
2026-05-06 05:39 51.46496 -0.43916 91 ft 12 kts 266°
2026-05-06 05:39 51.46492 -0.44232 92 ft 58 kts 269°
2026-05-06 05:39 51.46489 -0.45323 93 ft 133 kts 269°
2026-05-06 05:39 51.46473 -0.47094 331 ft 173 kts 271°
2026-05-06 05:40 51.46435 -0.49016 1284 ft 171 kts 272°
2026-05-06 05:40 51.46109 -0.50952 1713 ft 195 kts 245°
2026-05-06 05:40 51.45067 -0.52537 1861 ft 219 kts 203°
2026-05-06 05:40 51.43535 -0.52731 1971 ft 236 kts 161°
2026-05-06 05:41 51.42160 -0.51269 2206 ft 246 kts 122°
2026-05-06 05:41 51.41508 -0.48747 2680 ft 248 kts 101°
2026-05-06 05:41 51.40679 -0.46273 3226 ft 263 kts 132°
2026-05-06 05:41 51.39200 -0.44481 3861 ft 270 kts 146°
2026-05-06 05:42 51.37578 -0.42923 4490 ft 275 kts 148°
2026-05-06 05:42 51.35914 -0.41384 5126 ft 277 kts 149°
2026-05-06 05:42 51.34229 -0.39843 5706 ft 280 kts 150°
2026-05-06 05:42 51.32598 -0.38116 6120 ft 283 kts 137°
2026-05-06 05:43 51.31496 -0.35529 6618 ft 284 kts 106°
2026-05-06 05:43 51.31313 -0.32443 7255 ft 278 kts 77°
2026-05-06 05:43 51.31700 -0.29421 7894 ft 280 kts 80°
2026-05-06 05:43 51.31809 -0.26301 8533 ft 283 kts 88°
2026-05-06 05:44 51.31789 -0.23133 9197 ft 285 kts 89°
2026-05-06 05:44 51.31749 -0.19951 9856 ft 288 kts 89°
2026-05-06 05:44 51.31703 -0.16718 10320 ft 296 kts 89°
2026-05-06 05:44 51.31660 -0.13354 10624 ft 309 kts 90°
2026-05-06 05:45 51.31609 -0.09842 10921 ft 323 kts 90°
2026-05-06 05:45 51.31554 -0.06186 11218 ft 336 kts 90°
2026-05-06 05:45 51.31497 -0.02385 11484 ft 349 kts 90°
2026-05-06 05:45 51.31437 0.01574 11725 ft 362 kts 90°
2026-05-06 05:46 51.31374 0.05669 11943 ft 376 kts 90°
2026-05-06 05:46 51.31306 0.09913 12163 ft 388 kts 90°
2026-05-06 05:46 51.31235 0.14259 12543 ft 394 kts 90°
2026-05-06 05:46 51.31161 0.18661 13009 ft 398 kts 90°
2026-05-06 05:47 51.31087 0.23097 13495 ft 401 kts 91°
2026-05-06 05:47 51.31009 0.27577 13932 ft 405 kts 91°
2026-05-06 05:47 51.30929 0.32089 14467 ft 408 kts 91°
2026-05-06 05:47 51.30848 0.36573 14892 ft 411 kts 91°
2026-05-06 05:48 51.30764 0.41167 15341 ft 413 kts 91°
2026-05-06 05:48 51.30677 0.45773 15780 ft 416 kts 91°
2026-05-06 05:48 51.30589 0.50416 16220 ft 419 kts 91°
2026-05-06 05:48 51.30498 0.55086 16648 ft 422 kts 91°
2026-05-06 05:49 51.30270 0.59774 17080 ft 425 kts 98°
2026-05-06 05:49 51.29671 0.64431 17532 ft 428 kts 103°
2026-05-06 05:49 51.28893 0.69042 17948 ft 431 kts 105°
2026-05-06 05:49 51.28026 0.73638 18388 ft 434 kts 107°
2026-05-06 05:50 51.27124 0.78254 18782 ft 436 kts 107°
2026-05-06 05:50 51.26221 0.82889 19190 ft 438 kts 107°
2026-05-06 05:50 51.25328 0.87535 19608 ft 439 kts 106°
2026-05-06 05:50 51.24443 0.92218 19988 ft 441 kts 106°
2026-05-06 05:51 51.23566 0.96915 20400 ft 443 kts 106°
2026-05-06 05:51 51.22688 1.01633 20827 ft 444 kts 106°
2026-05-06 05:51 51.21808 1.06375 21242 ft 447 kts 106°
2026-05-06 05:51 51.20923 1.11131 21663 ft 449 kts 106°
2026-05-06 05:52 51.20045 1.15835 22072 ft 451 kts 107°
2026-05-06 05:52 51.19131 1.20714 22485 ft 453 kts 107°
2026-05-06 05:52 51.18238 1.25465 22880 ft 455 kts 107°
2026-05-06 05:52 51.17322 1.30322 23279 ft 458 kts 107°
2026-05-06 05:53 51.16542 1.35254 23610 ft 461 kts 101°
2026-05-06 05:53 51.16091 1.40338 23942 ft 464 kts 97°
2026-05-06 05:53 51.15765 1.45456 24272 ft 466 kts 95°
2026-05-06 05:53 51.15499 1.50616 24596 ft 469 kts 95°
2026-05-06 05:54 51.15259 1.55804 24939 ft 471 kts 94°
2026-05-06 05:54 51.15024 1.61013 25277 ft 473 kts 94°
2026-05-06 05:54 51.14785 1.66240 25636 ft 474 kts 94°
2026-05-06 05:54 51.14536 1.71494 26003 ft 476 kts 95°
2026-05-06 05:55 51.14278 1.76763 26375 ft 478 kts 95°
2026-05-06 05:55 51.14013 1.82044 26731 ft 480 kts 95°
2026-05-06 05:55 51.13770 1.86800 27039 ft 481 kts 95°
2026-05-06 05:55 51.13644 1.89244 27196 ft 482 kts 95°
2026-05-06 05:56 51.13365 1.94614 27552 ft 484 kts 95°
2026-05-06 05:56 51.13085 1.99952 27880 ft 486 kts 95°
2026-05-06 05:56 51.12801 2.05334 28196 ft 488 kts 95°
2026-05-06 05:56 51.12515 2.10719 28505 ft 490 kts 95°
2026-05-06 05:57 51.12224 2.16141 28807 ft 491 kts 95°
2026-05-06 05:57 51.11931 2.21554 29256 ft 490 kts 95°
2026-05-06 05:57 51.11637 2.26935 29735 ft 488 kts 95°
2026-05-06 05:57 51.11342 2.32297 30135 ft 486 kts 95°
2026-05-06 05:58 51.11044 2.37656 30481 ft 486 kts 95°
2026-05-06 05:58 51.10748 2.42948 30816 ft 485 kts 95°
2026-05-06 05:58 51.10447 2.48285 31169 ft 484 kts 95°
2026-05-06 05:58 51.10144 2.53616 31524 ft 483 kts 95°
2026-05-06 05:59 51.09839 2.58930 31866 ft 482 kts 95°
2026-05-06 05:59 51.09471 2.64224 32199 ft 481 kts 99°
2026-05-06 05:59 51.08817 2.69435 32534 ft 479 kts 102°
2026-05-06 05:59 51.08084 2.74606 32823 ft 480 kts 103°
2026-05-06 06:00 51.06516 2.85012 32885 ft 486 kts 104°
2026-05-06 06:00 51.04907 2.95443 32884 ft 485 kts 104°
2026-05-06 06:01 51.03572 3.04098 32884 ft 486 kts 104°
2026-05-06 06:01 51.01962 3.14533 32878 ft 486 kts 104°
2026-05-06 06:02 51.00347 3.24947 32876 ft 486 kts 104°
2026-05-06 06:02 50.98724 3.35350 32872 ft 485 kts 104°
2026-05-06 06:03 50.97092 3.45743 32869 ft 485 kts 104°
2026-05-06 06:03 50.95455 3.56097 32869 ft 484 kts 104°
2026-05-06 06:04 50.93901 3.65781 32868 ft 484 kts 104°
2026-05-06 06:05 50.93621 3.67510 32861 ft 484 kts 104°
2026-05-06 06:05 50.91978 3.77781 32861 ft 484 kts 104°
2026-05-06 06:06 50.90501 3.87011 32856 ft 484 kts 104°
2026-05-06 06:06 50.90070 3.89688 32851 ft 484 kts 104°
2026-05-06 06:07 50.88400 4.00007 32847 ft 484 kts 105°
2026-05-06 06:07 50.86658 4.10282 32848 ft 483 kts 107°
2026-05-06 06:08 50.84715 4.20468 32849 ft 483 kts 108°
2026-05-06 06:08 50.82749 4.30640 32851 ft 483 kts 108°